time_stamp(utc),avg(mph),gust(mph),direction(deg),12m_air_temp(f),sonic_u(cm/s),sonic_v(cm/s),sonic_w(cm/s),pressure,2m_air_temp(f),pyranometer(W/m^2)
"2018-03-29 00:02:58+00",6.5,7.5,,45.6,-120,-245,-1,1016.4,45,0
"2018-03-29 00:07:58+00",4.8,5.8,,45.6,-70,-191,-1,1016.38,45,0
"2018-03-29 00:12:58+00",5.0,6.0,,45.6,-77,-191,-4,1016.46,45.1,0
"2018-03-29 00:17:58+00",4.0,4.0,,45.7,-32,-163,-3,1016.48,45.1,0
"2018-03-29 00:22:58+00",4.0,4.0,,45.7,1,-162,-5,1016.41,45.1,0
"2018-03-29 00:27:58+00",3.8,3.8,,45.2,8,-159,-8,1016.57,44.8,0
"2018-03-29 00:32:58+00",4.1,5.1,,45.3,-22,-170,-3,1016.68,44.6,0
"2018-03-29 00:37:58+00",4.4,4.4,,45.4,-29,-179,-1,1016.8,44.6,0
"2018-03-29 00:42:58+00",4.4,4.4,,45.3,-9,-182,-1,1016.88,44.4,0
"2018-03-29 00:47:58+00",4.9,4.9,,45.1,-46,-196,-4,1016.89,44.1,0
"2018-03-29 00:52:58+00",3.8,4.8,,45.2,-46,-146,0,1016.97,44.2,0
"2018-03-29 00:57:58+00",3.9,4.9,,45,-45,-156,1,1017.06,44.2,0
"2018-03-29 01:02:58+00",5.4,5.4,,45.1,-96,-209,0,1017.12,44.2,0
"2018-03-29 01:07:58+00",4.9,5.9,,45.2,-94,-186,-4,1017.19,44.3,0
"2018-03-29 01:12:58+00",5.0,6.0,,45.2,-69,-195,-3,1017.14,44.4,0
"2018-03-29 01:17:58+00",6.2,7.2,,45.4,-104,-238,-5,1017.01,44.6,0
"2018-03-29 01:22:58+00",5.6,6.6,,45.4,-79,-225,-5,1016.99,44.7,0
"2018-03-29 01:27:58+00",5.3,6.3,,45.3,-66,-216,-1,1016.81,44.7,0
"2018-03-29 01:32:58+00",5.8,6.8,,45.4,-34,-240,-8,1016.79,44.9,0
"2018-03-29 01:37:58+00",5.1,6.1,,45.2,-16,-208,7,1016.86,44.8,0
"2018-03-29 01:42:58+00",4.9,6.9,,44.6,-41,-197,1,1016.95,44.3,0
"2018-03-29 01:47:58+00",5.0,6.0,,44.5,-61,-197,-3,1017.04,44.1,0
"2018-03-29 01:52:58+00",6.6,6.6,,44.8,-130,-250,0,1017.14,44.2,0
"2018-03-29 01:57:58+00",6.2,8.2,,44.7,-77,-254,-1,1017.06,44.3,0
"2018-03-29 02:02:58+00",8.0,9.0,,44.3,-65,-333,-11,1017.05,44.2,0
"2018-03-29 02:07:58+00",6.1,8.1,,44.2,-64,-250,2,1017.12,44.2,0
"2018-03-29 02:12:58+00",6.3,7.3,,44.1,-55,-262,-4,1017.16,44.1,0
"2018-03-29 02:17:58+00",6.0,7.0,,44.1,-74,-247,8,1017.06,44.1,0
"2018-03-29 02:22:58+00",7.0,9.0,,44.2,-80,-288,2,1017.03,44.1,0
"2018-03-29 02:27:58+00",8.4,8.4,,44.3,-118,-338,-4,1016.99,44.1,0
"2018-03-29 02:32:58+00",7.1,8.1,,44.4,-75,-291,1,1016.9,44.2,0
"2018-03-29 02:37:58+00",6.5,7.5,,44.4,-68,-272,0,1016.86,44.3,0
"2018-03-29 02:42:58+00",6.6,7.6,,44.5,-46,-278,-9,1016.93,44.4,0
"2018-03-29 02:47:58+00",6.3,8.3,,44.6,-62,-258,5,1016.97,44.5,0
"2018-03-29 02:52:58+00",6.0,8.0,,44.7,-63,-248,4,1016.97,44.5,0
"2018-03-29 02:57:58+00",6.8,7.8,,44.7,-83,-277,-6,1016.89,44.6,0
"2018-03-29 03:02:58+00",7.2,9.2,,44.6,-96,-299,6,1016.87,44.4,0
"2018-03-29 03:07:58+00",6.9,8.9,,44.3,-65,-291,2,1016.77,44.3,0
"2018-03-29 03:12:58+00",6.9,7.9,,44.2,-84,-281,0,1016.82,44.2,0
"2018-03-29 03:17:58+00",6.9,7.9,,44.1,-129,-270,4,1016.93,44.1,0
"2018-03-29 03:22:58+00",6.2,7.2,,43.9,-83,-251,2,1016.85,43.9,0
"2018-03-29 03:27:58+00",6.5,7.5,,43.9,-87,-270,-2,1016.72,43.8,0
"2018-03-29 03:32:58+00",7.1,9.1,,43.9,-82,-287,-2,1016.69,43.9,0
"2018-03-29 03:37:58+00",7.1,8.1,,44,-108,-284,0,1016.61,43.9,0
"2018-03-29 03:42:58+00",7.7,8.7,,44.1,-189,-285,5,1016.77,43.9,0
"2018-03-29 03:47:58+00",8.2,9.2,,44.1,-212,-302,14,1016.8,44,0
"2018-03-29 03:52:58+00",8.6,10.6,,44.1,-274,-267,0,1016.87,44,0
"2018-03-29 03:57:58+00",8.3,9.3,,44.2,-283,-219,7,1017.02,44.1,0
"2018-03-29 04:02:58+00",8.4,9.4,,44.2,-273,-250,10,1016.94,44.1,0
"2018-03-29 04:07:58+00",8.4,9.4,,44.3,-273,-236,6,1016.83,44.2,0
"2018-03-29 04:12:58+00",8.8,9.8,,44.3,-294,-247,4,1016.73,44.2,0
"2018-03-29 04:17:58+00",9.7,10.7,,44.4,-324,-263,-4,1016.67,44.2,0
"2018-03-29 04:22:58+00",9.0,10.0,,44.4,-315,-235,9,1016.61,44.2,0
"2018-03-29 04:27:58+00",9.1,10.1,,44.4,-329,-225,11,1016.62,44.3,0
"2018-03-29 04:32:58+00",8.3,10.3,,44.4,-323,-191,9,1016.67,44.3,0
"2018-03-29 04:37:58+00",7.2,8.2,,44.4,-268,-170,13,1016.66,44.3,0
"2018-03-29 04:42:58+00",9.6,11.6,,44.5,-343,-240,13,1016.59,44.3,0
"2018-03-29 04:47:58+00",9.5,10.5,,44.4,-329,-256,9,1016.55,44.3,0
"2018-03-29 04:52:58+00",9.0,10.0,,44.3,-303,-249,7,1016.45,44.1,0
"2018-03-29 04:57:58+00",8.0,9.0,,44.2,-270,-216,3,1016.43,44.1,0
"2018-03-29 05:02:58+00",8.3,10.3,,44.1,-283,-220,10,1016.36,44,0
"2018-03-29 05:07:58+00",9.1,10.1,,44.1,-302,-263,7,1016.38,43.9,0
"2018-03-29 05:12:58+00",7.6,8.6,,44.1,-259,-205,8,1016.28,43.9,0
"2018-03-29 05:17:58+00",7.4,8.4,,44.1,-252,-200,10,1016.29,43.9,0
"2018-03-29 05:22:58+00",7.4,8.4,,44.1,-253,-195,9,1016.34,43.9,0
"2018-03-29 05:27:58+00",7.8,8.8,,44.2,-254,-232,-1,1016.34,44,0
"2018-03-29 05:32:58+00",8.4,9.4,,44.2,-275,-246,-7,1016.22,44,0
"2018-03-29 05:37:58+00",8.0,9.0,,44.3,-256,-241,3,1016.33,44,0
"2018-03-29 05:42:58+00",8.7,9.7,,44.4,-267,-283,-2,1016.24,44.1,0
"2018-03-29 05:47:58+00",8.4,9.4,,44.4,-268,-262,7,1016.32,44.1,0
"2018-03-29 05:52:58+00",8.1,9.1,,44.5,-281,-211,3,1016.36,44.1,0
"2018-03-29 05:57:58+00",8.3,10.3,,44.5,-296,-206,14,1016.42,44.2,0
"2018-03-29 06:02:58+00",8.7,10.7,,44.5,-320,-211,1,1016.44,44.2,0
"2018-03-29 06:07:58+00",7.8,8.8,,44.4,-290,-187,12,1016.36,44.2,0
"2018-03-29 06:12:58+00",7.6,8.6,,44.4,-263,-196,6,1016.28,44.1,0
"2018-03-29 06:17:58+00",7.1,8.1,,44.3,-250,-186,11,1016.19,44.1,0
"2018-03-29 06:22:58+00",7.8,8.8,,44.3,-244,-252,3,1016.09,44.1,0
"2018-03-29 06:27:58+00",6.5,7.5,,44.3,-202,-198,1,1015.88,44.1,0
"2018-03-29 06:32:58+00",6.1,6.1,,44.2,-186,-197,-5,1015.88,44.1,0
"2018-03-29 06:37:58+00",5.3,6.3,,44.2,-164,-171,3,1015.84,44.1,0
"2018-03-29 06:42:58+00",4.8,5.8,,44.2,-127,-176,6,1015.7,44.1,0
"2018-03-29 06:47:58+00",4.2,5.2,,44.2,-89,-157,-7,1015.67,44.1,0
"2018-03-29 06:52:58+00",3.6,4.6,,44.2,-111,-109,-1,1015.76,44.1,0
"2018-03-29 06:57:58+00",2.6,2.6,,44.2,-94,-62,7,1015.72,44.1,0
"2018-03-29 07:02:58+00",4.0,5.0,,44.3,-128,-111,3,1015.8,44.1,0
"2018-03-29 07:07:58+00",2.8,3.8,,44.3,-81,-90,9,1015.86,44.2,0
"2018-03-29 07:12:58+00",3.2,4.2,,44.3,-91,-99,5,1015.93,44.2,0
"2018-03-29 07:17:58+00",2.0,2.0,,44.3,-71,-45,4,1015.84,44.2,0
"2018-03-29 07:22:58+00",3.0,3.0,,44.3,-106,-73,8,1015.95,44.2,0
"2018-03-29 07:27:58+00",3.2,4.2,,44.4,-92,-106,1,1015.84,44.2,0
"2018-03-29 07:32:58+00",3.5,3.5,,44.4,-109,-108,3,1015.86,44.3,0
"2018-03-29 07:37:58+00",3.8,4.8,,44.4,-118,-109,1,1015.87,44.3,0
"2018-03-29 07:42:58+00",3.6,4.6,,44.4,-62,-138,-3,1015.7,44.3,0
"2018-03-29 07:47:58+00",3.2,4.2,,44.4,-19,-137,1,1015.67,44.3,0
"2018-03-29 07:52:58+00",2.4,2.4,,44.2,13,-98,-3,1015.81,44.2,0
"2018-03-29 07:57:58+00",2.5,2.5,,44,11,-100,-4,1015.83,44.1,0
"2018-03-29 08:02:58+00",2.2,2.2,,43.9,40,-85,-2,1015.99,44,0
"2018-03-29 08:07:58+00",2.0,2.0,,43.8,45,-73,-7,1015.87,43.9,0
"2018-03-29 08:12:58+00",1.9,2.9,,43.8,51,-68,-6,1015.89,43.8,0
"2018-03-29 08:17:58+00",2.8,3.8,,43.7,62,-102,-2,1015.89,43.8,0
"2018-03-29 08:22:58+00",2.8,2.8,,43.6,93,-68,3,1015.82,43.8,0
"2018-03-29 08:27:58+00",2.9,2.9,,43.6,124,12,7,1015.78,43.7,0
"2018-03-29 08:32:58+00",2.7,2.7,,43.5,118,5,2,1015.9,43.7,0
"2018-03-29 08:37:58+00",3.2,4.2,,43.5,135,21,6,1015.88,43.7,0
"2018-03-29 08:42:58+00",3.2,4.2,,43.6,136,46,11,1015.94,43.7,0
"2018-03-29 08:47:58+00",3.2,4.2,,43.6,134,47,16,1015.98,43.7,0
"2018-03-29 08:52:58+00",3.0,3.0,,43.5,119,52,6,1016.01,43.7,0
"2018-03-29 08:57:58+00",3.7,3.7,,43.5,155,26,24,1016.09,43.6,0
"2018-03-29 09:02:58+00",4.5,5.5,,43.4,195,-17,16,1016.01,43.6,0
"2018-03-29 09:07:58+00",6.1,7.1,,43.1,264,25,15,1015.97,43.4,0
"2018-03-29 09:12:58+00",6.1,6.1,,43,264,50,12,1016,43.2,0
"2018-03-29 09:17:58+00",5.9,6.9,,43,247,86,8,1016.05,43.2,0
"2018-03-29 09:22:58+00",5.8,6.8,,43.2,247,68,12,1016.22,43.2,0
"2018-03-29 09:27:58+00",4.7,5.7,,43.2,205,69,23,1016.26,43.3,0
"2018-03-29 09:32:58+00",4.0,4.0,,43.2,168,48,9,1016.28,43.2,0
"2018-03-29 09:37:58+00",3.0,3.0,,43.2,130,4,4,1016.44,43.3,0
"2018-03-29 09:42:58+00",4.8,4.8,,43.2,203,-43,6,1016.31,43.2,0
"2018-03-29 09:47:58+00",4.7,4.7,,43,206,-6,11,1016.21,43.1,0
"2018-03-29 09:52:58+00",4.9,5.9,,42.8,204,-54,2,1016.28,43,0
"2018-03-29 09:57:58+00",5.6,6.6,,42.7,223,-111,5,1016.08,42.9,0
"2018-03-29 10:02:58+00",5.9,6.9,,42.7,235,-122,-11,1016.06,42.9,0
"2018-03-29 10:07:58+00",5.8,6.8,,42.6,247,-120,-14,1015.9,42.8,0
"2018-03-29 10:12:58+00",6.4,7.4,,42.5,244,-167,-18,1016.05,42.7,0
"2018-03-29 10:17:58+00",5.5,6.5,,42.6,203,-150,-10,1015.99,42.7,0
"2018-03-29 10:22:58+00",6.6,6.6,,42.6,727,-166,-242,1016.02,42.7,0
"2018-03-29 10:27:58+00",7.9,8.9,,42.5,327,-161,-11,1015.87,42.7,0
"2018-03-29 10:32:58+00",7.9,8.9,,42.5,307,-216,-18,1015.92,42.7,0
"2018-03-29 10:37:58+00",7.4,8.4,,42.6,270,-220,-11,1015.95,42.7,0
"2018-03-29 10:42:58+00",6.4,8.4,,42.6,150,-234,-5,1016.15,42.7,0
"2018-03-29 10:47:58+00",6.4,7.4,,42.7,192,-213,-9,1016.06,42.7,0
"2018-03-29 10:52:58+00",4.4,5.4,,42.7,50,-179,1,1016.46,42.7,0
"2018-03-29 10:57:58+00",3.0,3.0,,42.7,17,-115,7,1016.58,42.7,0
"2018-03-29 11:02:58+00",6.2,6.2,,42.7,79,-253,-9,1016.44,42.7,0
"2018-03-29 11:07:58+00",6.7,6.7,,42.6,93,-279,-15,1016.42,42.7,0
"2018-03-29 11:12:58+00",6.8,7.8,,42.6,90,-281,-29,1016.57,42.6,0
"2018-03-29 11:17:58+00",6.8,7.8,,42.6,131,-277,-24,1016.41,42.5,0
"2018-03-29 11:22:58+00",6.3,7.3,,42.6,120,-260,-19,1016.42,42.6,0
"2018-03-29 11:27:58+00",6.8,7.8,,42.9,921,-221,-343,1016.19,42.8,0
"2018-03-29 11:32:58+00",7.3,8.3,,42.9,1735,-232,-712,1016.16,42.9,0
"2018-03-29 11:37:58+00",8.6,9.6,,43,482,-294,-127,1016.29,43.1,0.2
"2018-03-29 11:42:58+00",8.6,10.6,,43,510,-256,-122,1016.19,43.2,1
"2018-03-29 11:47:58+00",7.7,8.7,,43.1,315,-210,-22,1016.25,43.2,0
"2018-03-29 11:52:58+00",7.9,8.9,,43.1,272,-253,-18,1016.49,43.3,0
"2018-03-29 11:57:58+00",8.2,9.2,,43,254,-283,-21,1016.55,43.1,0
"2018-03-29 12:02:58+00",7.4,8.4,,43.1,207,-243,-8,1016.64,43,0
"2018-03-29 12:07:58+00",7.6,7.6,,43.1,281,-175,3,1016.25,43.1,0
"2018-03-29 12:12:58+00",7.2,8.2,,43,266,-152,6,1016.3,43.1,0
"2018-03-29 12:17:58+00",5.9,6.9,,43.1,204,-135,7,1016.55,43.1,0
"2018-03-29 12:22:58+00",6.3,7.3,,43.2,213,-165,0,1016.56,43.2,0
"2018-03-29 12:27:58+00",6.4,7.4,,43.2,235,-150,4,1016.31,43.3,0
"2018-03-29 12:32:58+00",7.7,8.7,,43.3,303,-156,9,1015.95,43.4,0.2
"2018-03-29 12:37:58+00",8.3,9.3,,43.2,305,-189,3,1015.94,43.5,18.1
"2018-03-29 12:42:58+00",7.7,8.7,,43.5,296,-157,7,1016.07,43.8,40.6
"2018-03-29 12:47:58+00",7.3,8.3,,43.7,286,-138,-1,1016.15,44.1,23.2
"2018-03-29 12:52:58+00",6.8,7.8,,44,252,-147,4,1016.19,44.4,31.5
"2018-03-29 12:57:58+00",7.1,8.1,,43.9,254,-172,4,1016.35,44.7,53.3
"2018-03-29 13:02:58+00",7.9,8.9,,44,283,-189,6,1016.29,44.7,24.5
"2018-03-29 13:07:58+00",7.9,9.9,,44.2,299,-162,9,1016.18,44.8,15.6
"2018-03-29 13:12:58+00",9.3,10.3,,44,345,-214,7,1016.13,44.7,21
"2018-03-29 13:17:58+00",8.6,9.6,,44,310,-200,8,1016.09,44.7,27.2
"2018-03-29 13:22:58+00",6.9,7.9,,44,258,-164,18,1016.17,44.8,36.2
"2018-03-29 13:27:58+00",6.5,7.5,,44.1,235,-150,11,1016.19,44.8,21
"2018-03-29 13:32:58+00",6.9,7.9,,44,236,-171,2,1016.27,44.9,39.3
"2018-03-29 13:37:58+00",6.6,6.6,,44,251,-137,-7,1016.41,44.9,37.6
"2018-03-29 13:42:58+00",5.8,6.8,,44,237,-80,-7,1016.43,44.9,40.1
"2018-03-29 13:47:58+00",5.8,6.8,,44.4,236,-84,8,1016.47,45.1,37.8
"2018-03-29 13:52:58+00",6.1,7.1,,44.5,247,-92,-5,1016.77,45.2,42.8
"2018-03-29 13:57:58+00",5.8,6.8,,44.7,243,-69,-4,1016.82,45.4,40.9
"2018-03-29 14:02:58+00",5.2,6.2,,44.8,225,-6,18,1016.97,45.6,39.8
"2018-03-29 14:07:58+00",5.0,6.0,,44.8,199,88,28,1016.8,45.8,45.2
"2018-03-29 14:12:58+00",7.5,8.5,,44.6,317,107,8,1016.63,45.8,60.7
"2018-03-29 14:17:58+00",6.8,8.8,,44.8,296,40,19,1016.61,46.1,85.5
"2018-03-29 14:22:58+00",7.9,8.9,,44.9,351,-4,14,1016.49,46.1,124.7
"2018-03-29 14:27:58+00",8.1,9.1,,45.1,355,-34,6,1016.54,46.4,171.4
"2018-03-29 14:32:58+00",8.1,9.1,,45.3,353,-38,17,1016.36,46.9,194.8
"2018-03-29 14:37:58+00",8.3,10.3,,45.6,345,-112,16,1016.24,47.3,196.4
"2018-03-29 14:42:58+00",8.8,9.8,,45.3,387,-31,17,1016.24,47.2,174.2
"2018-03-29 14:47:58+00",8.6,10.6,,45.2,380,-6,6,1016.28,47.2,183
"2018-03-29 14:52:58+00",8.5,9.5,,45.1,373,32,12,1016.31,47.3,144.9
"2018-03-29 14:57:58+00",7.8,8.8,,45,345,-9,9,1016.52,47,134
"2018-03-29 15:02:58+00",7.3,8.3,,45.1,316,9,32,1016.61,47.2,139.7
"2018-03-29 15:07:58+00",7.8,9.8,,45.3,340,7,29,1016.38,47.3,164.2
"2018-03-29 15:12:58+00",7.9,8.9,,45.5,352,17,13,1016.4,47.4,181.3
"2018-03-29 15:17:58+00",8.2,10.2,,45.5,364,21,21,1016.39,48,261
"2018-03-29 15:22:58+00",8.7,10.7,,45.6,383,40,-9,1016.3,48.5,219.4
"2018-03-29 15:27:58+00",8.5,9.5,,45.7,372,12,7,1016.12,48.6,267.3
"2018-03-29 15:32:58+00",10.0,13.0,,45.8,450,0,28,1015.88,48.9,239.3
"2018-03-29 15:37:58+00",9.9,10.9,,46,440,10,11,1015.69,48.8,257.7
"2018-03-29 15:42:58+00",9.9,11.9,,46.3,437,-67,44,1015.69,49,278.3
"2018-03-29 15:47:58+00",9.7,11.7,,46.2,426,-25,18,1015.6,49,242
"2018-03-29 15:52:58+00",10.1,11.1,,46.1,447,-54,15,1015.65,48.7,283.2
"2018-03-29 15:57:58+00",8.6,9.6,,46,379,-26,30,1015.7,48.7,251.8
"2018-03-29 16:02:58+00",8.2,9.2,,46.1,356,-46,20,1015.85,48.8,269.7
"2018-03-29 16:07:58+00",9.2,10.2,,46.1,376,-142,-12,1015.79,48.9,296.5
"2018-03-29 16:12:58+00",8.9,9.9,,46.1,353,-178,-16,1015.87,49.3,285
"2018-03-29 16:17:58+00",7.5,9.5,,46.4,269,-173,-8,1015.84,49.4,274.8
"2018-03-29 16:22:58+00",8.3,9.3,,46.4,359,-83,9,1015.58,49.5,306.2
"2018-03-29 16:27:58+00",7.5,9.5,,46.6,284,-156,14,1015.52,50,276.9
"2018-03-29 16:32:58+00",8.0,9.0,,46.6,325,-136,3,1015.33,50.2,243.4
"2018-03-29 16:37:58+00",7.5,8.5,,46.7,289,-153,3,1015.13,50,284.5
"2018-03-29 16:42:58+00",7.4,8.4,,46.4,307,-90,-8,1015.2,50,157.5
"2018-03-29 16:47:58+00",6.1,7.1,,46.4,225,-119,37,1015.29,49.4,134.4
"2018-03-29 16:52:58+00",8.2,9.2,,46.4,353,-103,2,1015.04,49.4,255.9
"2018-03-29 16:57:58+00",8.3,9.3,,46.5,355,-48,-2,1014.95,49.2,234.5
"2018-03-29 17:02:58+00",8.7,10.7,,46.3,369,-104,-20,1014.81,49.1,225.7
"2018-03-29 17:07:58+00",8.6,10.6,,46.6,381,-45,21,1014.67,49.2,235.2
"2018-03-29 17:12:58+00",8.9,9.9,,46.5,389,-34,23,1014.77,49.3,179.4
"2018-03-29 17:17:58+00",9.0,11.0,,46.4,393,-53,-2,1014.82,49.4,230
"2018-03-29 17:22:58+00",7.3,8.3,,46.5,315,-38,22,1014.88,49.5,211.9
"2018-03-29 17:27:58+00",8.0,9.0,,46.3,349,-10,-12,1014.85,49.6,208.7
"2018-03-29 17:32:58+00",6.9,8.9,,46.4,303,7,-11,1014.95,49.5,151.9
"2018-03-29 17:37:58+00",7.7,9.7,,46.5,336,-71,13,1014.97,49.6,145.1
"2018-03-29 17:42:58+00",7.9,8.9,,46.6,334,-96,19,1014.84,49.4,188.6
"2018-03-29 17:47:58+00",8.3,10.3,,46.7,354,-72,12,1014.65,49.7,202.5
"2018-03-29 17:52:58+00",8.3,9.3,,47,372,20,22,1014.48,50.2,289.1
"2018-03-29 17:57:58+00",9.2,11.2,,46.9,405,38,30,1014.33,50.4,190.7
"2018-03-29 18:02:58+00",9.0,10.0,,46.8,398,-31,10,1014.24,50.3,175.1
"2018-03-29 18:07:58+00",8.5,10.5,,46.8,376,26,11,1014.19,50.1,261.4
"2018-03-29 18:12:58+00",9.0,10.0,,46.8,386,-80,4,1014.03,50,314.3
"2018-03-29 18:17:58+00",9.2,11.2,,47,399,-46,-6,1014,50.2,296
"2018-03-29 18:22:58+00",9.0,10.0,,47.2,376,-131,7,1013.9,50.6,335
"2018-03-29 18:27:58+00",9.1,11.1,,47,403,-28,32,1013.71,50.5,239.3
"2018-03-29 18:32:58+00",9.8,10.8,,46.9,427,-91,5,1013.62,50.1,246.7
"2018-03-29 18:37:58+00",10.0,11.0,,46.7,437,-56,6,1013.53,49.7,131
"2018-03-29 18:42:58+00",10.7,12.7,,46.4,598,-51,-51,1013.42,49.4,203.5
"2018-03-29 18:47:58+00",10.4,11.4,,46.6,677,-44,-110,1013.34,49.3,262.3
"2018-03-29 18:52:58+00",10.7,12.7,,47,462,-98,17,1013.25,49.7,257.8
"2018-03-29 18:57:58+00",11.3,13.3,,46.6,489,-139,-2,1013.22,49.4,150.7
"2018-03-29 19:02:58+00",11.6,12.6,,46.6,497,-143,19,1013.05,49.3,199.5
"2018-03-29 19:07:58+00",10.6,12.6,,46.6,480,-104,16,1012.65,48.9,282.2
"2018-03-29 19:12:58+00",11.1,12.1,,46.5,485,-96,31,1012.65,48.8,124.9
"2018-03-29 19:17:58+00",10.7,11.7,,46.6,451,-159,10,1012.47,49.1,154.8
"2018-03-29 19:22:58+00",9.8,10.8,,46.5,425,-127,18,1012.54,49,116.2
"2018-03-29 19:27:58+00",9.5,10.5,,46.3,406,-110,-9,1012.61,48.9,184.5
"2018-03-29 19:32:58+00",8.6,9.6,,46.2,347,-144,-10,1012.57,48.6,39.1
"2018-03-29 19:37:58+00",8.3,9.3,,46,328,-155,-3,1012.47,48.3,51.3
"2018-03-29 19:42:58+00",7.3,9.3,,46,274,-165,-1,1012.71,48.1,77.6
"2018-03-29 19:47:58+00",6.7,7.7,,45.9,252,-157,35,1012.78,48.1,81.3
"2018-03-29 19:52:58+00",6.4,7.4,,45.9,243,-143,10,1013.05,48.2,89.6
"2018-03-29 19:57:58+00",6.3,7.3,,45.9,250,-101,16,1012.97,48.4,159.3
"2018-03-29 20:02:58+00",5.8,6.8,,46.2,226,-114,10,1012.87,48.9,207.5
"2018-03-29 20:07:58+00",7.0,8.0,,46.4,267,-139,-10,1012.64,49.5,147.9
"2018-03-29 20:12:58+00",7.2,9.2,,46.6,288,-138,2,1012.37,49.6,207.8
"2018-03-29 20:17:58+00",5.9,6.9,,46.8,251,-80,2,1012.38,50.1,187.7
"2018-03-29 20:22:58+00",6.2,7.2,,46.9,222,-139,3,1012.43,50.2,204.8
"2018-03-29 20:27:58+00",5.5,6.5,,46.8,235,-53,23,1012.55,50,116.6
"2018-03-29 20:32:58+00",6.5,7.5,,47,246,-130,-4,1012.3,50.2,88.4
"2018-03-29 20:37:58+00",5.2,6.2,,47.3,267,-151,37,1012.18,50.4,228.8
"2018-03-29 20:42:58+00",5.5,7.5,,47.5,207,-104,6,1012.02,51,215.5
"2018-03-29 20:47:58+00",4.7,5.7,,48,156,-129,11,1011.94,51.3,192.6
"2018-03-29 20:52:58+00",6.2,7.2,,48,204,-171,-12,1011.95,51.4,74.1
"2018-03-29 20:57:58+00",5.6,6.6,,48,215,-124,6,1012.1,51.1,78.1
"2018-03-29 21:02:58+00",5.2,5.2,,48,170,-134,-12,1012.07,51,114.9
"2018-03-29 21:07:58+00",6.3,8.3,,48.4,98,-241,-6,1012.14,50.9,226.9
"2018-03-29 21:12:58+00",7.7,8.7,,48.8,87,-316,-3,1012.01,50.8,201.4
"2018-03-29 21:17:58+00",7.7,8.7,,48.5,121,-302,-9,1011.9,50.3,173.2
"2018-03-29 21:22:58+00",7.6,8.6,,48.4,145,-274,21,1011.95,50.2,157.7
"2018-03-29 21:27:58+00",8.4,9.4,,48.1,159,-316,-13,1011.93,49.8,93.6
"2018-03-29 21:32:58+00",7.2,8.2,,47.8,120,-281,-10,1011.95,49.2,14
"2018-03-29 21:37:58+00",5.9,7.9,,47.7,57,-226,1,1011.95,48.9,25.6
"2018-03-29 21:42:58+00",6.7,7.7,,47.9,57,-280,-11,1011.87,49,110.2
"2018-03-29 21:47:58+00",5.7,6.7,,48.1,34,-244,-16,1011.9,49.1,59.5
"2018-03-29 21:52:58+00",4.9,5.9,,48.6,19,-199,-3,1012.02,49.5,77.7
"2018-03-29 21:57:58+00",5.7,6.7,,48.7,38,-238,-10,1011.94,49.6,98.3
"2018-03-29 22:02:58+00",5.2,6.2,,48.6,54,-214,-5,1011.94,49.7,96.7
"2018-03-29 22:07:58+00",3.9,4.9,,48.7,77,-141,10,1011.81,49.8,69.9
"2018-03-29 22:12:58+00",4.4,5.4,,48.7,72,-167,-3,1011.76,50.1,17.3
"2018-03-29 22:17:58+00",4.5,5.5,,48.6,133,-140,-6,1011.74,50.1,33.6
"2018-03-29 22:22:58+00",5.5,6.5,,48.5,155,-173,5,1011.52,50,28.4
"2018-03-29 22:27:58+00",5.4,6.4,,48.3,137,-180,8,1011.53,49.8,0
"2018-03-29 22:32:58+00",6.2,7.2,,47.9,176,-195,11,1011.56,49.4,0
"2018-03-29 22:37:58+00",7.0,7.0,,47.6,200,-225,2,1011.47,48.9,2.8
"2018-03-29 22:42:58+00",6.7,7.7,,47.4,217,-192,-5,1011.44,48.6,0.4
"2018-03-29 22:47:58+00",5.9,5.9,,47,202,-152,-7,1011.55,48.4,0
"2018-03-29 22:52:58+00",6.2,7.2,,46.7,200,-170,1,1011.49,48.1,0
"2018-03-29 22:57:58+00",6.7,7.7,,46.6,226,-174,-2,1011.56,47.7,0
"2018-03-29 23:02:58+00",7.4,8.4,,46.5,261,-193,3,1011.39,47.5,0
"2018-03-29 23:07:58+00",7.6,8.6,,46.2,284,-170,7,1011.42,47.1,0
"2018-03-29 23:12:58+00",6.6,7.6,,46.1,251,-121,6,1011.36,46.8,0
"2018-03-29 23:17:58+00",7.4,8.4,,46,290,-142,2,1011.26,46.5,0
"2018-03-29 23:22:58+00",7.7,8.7,,45.9,303,-148,5,1011.21,46.3,0
"2018-03-29 23:27:58+00",8.3,9.3,,45.7,327,-148,12,1011.21,46.1,0
"2018-03-29 23:32:58+00",7.6,8.6,,45.7,300,-134,10,1011.24,45.9,0
"2018-03-29 23:37:58+00",6.9,7.9,,45.6,265,-152,0,1011.27,45.7,0
"2018-03-29 23:42:58+00",6.7,7.7,,45.6,252,-143,4,1011.22,45.6,0
"2018-03-29 23:47:58+00",6.7,7.7,,45.6,223,-180,-2,1011.29,45.5,0
"2018-03-29 23:52:58+00",7.0,8.0,,45.8,222,-206,-6,1011.16,45.6,0
"2018-03-29 23:57:58+00",6.8,8.8,,46,198,-210,-3,1011.14,45.7,0
